period_start,C,m1,H,J0,J1,J2,J3,J4,J5,JA,JB,JC,JD,JJ,JK,JN,#
2018-08-09 00:00:04,-0.02,0.75,0.00,27.53,30.35,32.78,13.64,43.11,1022.82,2014.16,3187.02,2850.94,3242.00,599.70,590.37,38.70,0000 0000 0000 0000 000000
2018-08-09 00:05:05,0.01,0.75,0.00,27.56,30.37,32.80,13.74,43.22,1022.92,2014.07,3186.93,2850.51,3241.93,600.11,590.70,38.75,0000 0000 0000 0000 000000
2018-08-09 00:10:06,0.03,0.75,0.00,27.57,30.39,32.82,13.78,43.08,1022.93,2014.03,3186.25,2850.03,3241.25,600.26,590.77,38.80,0000 0000 0000 0000 000000
2018-08-09 00:15:08,0.00,0.75,0.00,27.60,30.40,32.82,13.67,43.07,1022.95,2014.00,3186.00,2850.00,3241.00,599.78,590.37,38.85,0000 0000 0000 0000 000000
2018-08-09 00:20:09,0.17,0.75,0.00,27.62,30.42,32.85,13.71,43.00,1022.96,2014.00,3184.42,2848.43,3239.16,600.13,590.55,38.90,0000 0000 0000 0000 000000
2018-08-09 00:25:10,0.05,0.76,0.00,27.65,30.43,32.87,13.65,43.03,1022.96,2014.00,3182.68,2846.86,3237.09,599.73,590.22,38.95,0000 0000 0000 0000 000000
2018-08-09 00:30:11,0.02,0.76,0.00,27.65,30.45,32.88,13.74,43.07,1022.96,2014.00,3182.04,2846.17,3237.00,600.18,590.75,39.00,0000 0000 0000 0000 000000
2018-08-09 00:35:13,0.01,0.76,0.00,27.67,30.47,32.89,13.61,43.07,1022.93,2013.99,3181.94,2846.00,3236.46,599.48,589.92,39.05,0000 0000 0000 0000 000000
2018-08-09 00:40:14,0.07,0.76,0.00,27.69,30.48,32.91,13.71,43.18,1022.87,2013.98,3180.80,2845.48,3235.55,600.19,590.50,39.10,0000 0000 0000 0000 000000
2018-08-09 00:45:15,0.04,0.77,0.00,27.71,30.50,32.94,13.64,43.05,1022.87,2013.95,3179.92,2844.39,3234.57,599.90,590.28,39.15,0000 0000 0000 0000 000000
2018-08-09 00:50:16,0.02,0.77,0.00,27.72,30.51,32.94,13.67,43.08,1022.66,2013.88,3179.23,2844.02,3234.03,600.09,590.24,39.20,0000 0000 0000 0000 000000
2018-08-09 00:55:17,-0.02,0.77,0.00,27.74,30.53,32.97,13.65,43.13,1022.51,2013.65,3178.99,2843.98,3233.97,599.71,589.83,39.25,0000 0000 0000 0000 000000
2018-08-09 01:00:19,0.01,0.77,0.00,27.76,30.55,32.98,13.61,43.02,1022.49,2013.40,3178.51,2843.78,3233.35,599.68,589.75,39.30,0000 0000 0000 0000 000000
2018-08-09 01:05:20,0.01,0.77,0.00,27.79,30.57,33.00,13.70,43.07,1022.49,2013.19,3178.03,2843.12,3233.01,599.79,589.84,39.35,0000 0000 0000 0000 000000
2018-08-09 01:10:21,0.00,0.77,0.00,27.80,30.58,32.99,13.72,43.27,1022.50,2013.19,3177.95,2843.00,3232.95,600.47,590.09,39.40,0000 0000 0000 0000 000000
2018-08-09 01:15:22,0.02,0.77,0.00,27.77,30.60,33.09,13.58,43.04,1022.50,2013.05,3177.26,2842.94,3232.26,599.83,589.95,39.45,0000 0000 0000 0000 000000
2018-08-09 01:20:23,0.02,0.77,0.00,27.65,30.62,33.14,13.71,43.15,1022.49,2013.00,3176.99,2842.28,3232.00,599.95,590.07,39.50,0000 0000 0000 0000 000000
2018-08-09 01:25:25,0.01,0.77,0.00,27.60,30.62,33.23,13.71,43.10,1022.57,2013.01,3176.59,2842.03,3231.93,600.05,590.38,39.56,0000 0000 0000 0000 000000
2018-08-09 01:30:26,0.06,0.77,0.00,27.50,30.62,33.29,13.76,43.07,1022.55,2013.03,3175.73,2841.64,3230.99,600.07,590.59,39.61,0000 0000 0000 0000 000000
2018-08-09 01:35:27,0.13,0.78,0.00,27.46,30.64,33.28,13.70,42.92,1022.54,2013.06,3174.07,2839.19,3228.23,600.38,590.99,39.66,0000 0000 0000 0000 000000
2018-08-09 01:40:29,0.01,0.78,0.00,27.44,30.65,33.24,13.65,42.92,1022.56,2013.05,3173.56,2838.99,3227.98,599.77,590.48,39.71,0000 0000 0000 0000 000000
2018-08-09 01:45:30,0.03,0.78,0.00,27.44,30.65,33.29,13.70,42.89,1022.52,2013.01,3172.90,2838.63,3227.28,599.87,590.54,39.76,0000 0000 0000 0000 000000
2018-08-09 01:50:31,0.05,0.79,0.00,27.58,30.67,33.21,13.66,43.18,1022.50,2013.00,3172.05,2837.87,3226.33,599.71,590.25,39.81,0000 0000 0000 0000 000000
2018-08-09 01:55:33,0.02,0.79,0.00,27.75,30.67,33.06,13.59,43.01,1022.49,2013.00,3171.96,2837.19,3226.00,599.93,589.94,39.86,0000 0000 0000 0000 000000
2018-08-09 02:00:34,0.02,0.79,0.00,27.88,30.70,33.06,13.68,43.11,1022.48,2013.00,3171.35,2837.00,3225.78,600.21,590.02,39.91,0000 0000 0000 0000 000000
2018-08-09 02:05:35,0.01,0.79,0.00,28.00,30.73,33.11,13.63,43.06,1022.48,2012.98,3170.98,2836.84,3225.05,599.73,589.27,39.96,0000 0000 0000 0000 000000
2018-08-09 02:10:36,0.08,0.79,0.00,28.10,30.77,33.18,13.60,43.07,1022.49,2012.84,3169.97,2835.75,3224.22,600.31,589.52,40.01,0000 0000 0000 0000 000000
2018-08-09 02:15:37,0.01,0.80,0.00,28.20,30.82,33.28,13.68,42.99,1022.50,2012.30,3168.55,2834.44,3222.57,600.20,589.36,40.06,0000 0000 0000 0000 000000
2018-08-09 02:20:39,0.01,0.80,0.00,28.29,30.87,33.35,13.63,42.98,1022.51,2012.11,3167.72,2833.67,3221.64,600.13,589.03,40.11,0000 0000 0000 0000 000000
2018-08-09 02:25:40,0.17,0.80,0.00,28.38,30.93,33.44,13.67,42.98,1022.49,2012.00,3165.26,2831.17,3218.86,600.41,589.21,40.16,0000 0000 0000 0000 000000
2018-08-09 02:30:41,0.03,0.81,0.00,28.46,30.99,33.51,13.58,42.95,1022.50,2012.00,3164.67,2830.70,3218.02,599.68,588.29,40.21,0000 0000 0000 0000 000000
2018-08-09 02:35:42,0.02,0.81,0.00,28.53,31.06,33.59,13.58,42.78,1022.49,2011.91,3164.01,2830.03,3217.23,599.87,588.40,40.26,0000 0000 0000 0000 000000
2018-08-09 02:40:44,-0.02,0.81,0.00,28.61,31.13,33.67,13.53,42.84,1022.49,2011.22,3163.27,2829.51,3216.69,599.63,588.04,40.31,0000 0000 0000 0000 000000
2018-08-09 02:45:45,0.02,0.81,0.00,28.67,31.20,33.74,13.67,42.88,1022.49,2011.01,3162.56,2828.93,3215.91,600.42,588.68,40.36,0000 0000 0000 0000 000000
2018-08-09 02:50:46,0.04,0.81,0.00,28.73,31.26,33.83,13.63,42.85,1022.49,2010.96,3161.95,2828.13,3215.08,599.90,587.98,40.41,0000 0000 0000 0000 000000
2018-08-09 02:55:47,-0.01,0.81,0.00,28.79,31.33,33.90,13.57,42.78,1022.50,2010.53,3161.12,2827.74,3214.39,600.31,588.25,40.47,0000 0000 0000 0000 000000
2018-08-09 03:00:48,0.01,0.81,0.00,28.84,31.40,33.98,13.59,42.83,1022.50,2010.02,3160.43,2827.02,3213.62,599.93,587.85,40.52,0000 0000 0000 0000 000000
2018-08-09 03:05:50,0.03,0.81,0.00,28.89,31.47,34.05,13.60,42.77,1022.50,2009.98,3159.79,2826.33,3212.93,599.82,587.61,40.57,0000 0000 0000 0000 000000
2018-08-09 03:10:51,0.01,0.81,0.00,28.94,31.54,34.12,13.61,42.75,1022.51,2009.79,3158.98,2825.88,3212.09,600.04,587.75,40.62,0000 0000 0000 0000 000000
2018-08-09 03:15:52,-0.01,0.81,0.00,28.99,31.60,34.20,13.53,42.76,1022.54,2009.11,3158.15,2825.08,3211.37,599.82,587.44,40.67,0000 0000 0000 0000 000000
2018-08-09 03:20:54,0.05,0.81,0.00,29.03,31.67,34.25,13.62,42.72,1022.59,2009.00,3157.36,2824.49,3210.53,599.80,587.40,40.72,0000 0000 0000 0000 000000
2018-08-09 03:25:55,0.02,0.82,0.00,29.07,31.74,34.32,13.66,42.77,1022.68,2008.93,3156.56,2823.91,3209.73,600.25,587.83,40.77,0000 0000 0000 0000 000000
2018-08-09 03:30:56,-0.03,0.82,0.00,29.11,31.80,34.38,13.65,42.82,1022.67,2008.33,3155.93,2823.12,3208.98,599.94,587.42,40.82,0000 0000 0000 0000 000000
2018-08-09 03:35:57,0.03,0.82,0.00,29.15,31.87,34.43,13.64,42.79,1022.63,2008.02,3155.09,2822.56,3208.14,600.18,587.53,40.87,0000 0000 0000 0000 000000
2018-08-09 03:40:59,0.04,0.82,0.00,29.19,31.93,34.49,13.54,42.66,1022.55,2008.00,3154.20,2821.94,3207.24,599.82,587.08,40.92,0000 0000 0000 0000 000000
2018-08-09 03:46:00,0.01,0.82,0.00,29.22,31.99,34.55,13.63,42.82,1022.54,2007.71,3153.38,2821.11,3206.37,599.84,586.99,40.97,0000 0000 0000 0000 000000
2018-08-09 03:51:01,-0.00,0.82,0.00,29.26,32.05,34.60,13.62,42.84,1022.51,2007.12,3152.75,2820.65,3205.68,600.00,587.04,41.02,0000 0000 0000 0000 000000
2018-08-09 03:56:03,0.02,0.82,0.00,29.29,32.11,34.65,13.61,42.80,1022.52,2007.00,3151.97,2820.00,3204.88,600.13,587.12,41.07,0000 0000 0000 0000 000000
2018-08-09 04:01:04,0.04,0.82,0.00,29.32,32.17,34.70,13.64,42.98,1022.52,2006.97,3151.13,2819.24,3204.06,600.17,587.18,41.12,0000 0000 0000 0000 000000
2018-08-09 04:06:05,-0.00,0.82,0.00,29.36,32.23,34.75,13.64,42.87,1022.50,2006.58,3150.25,2818.69,3203.18,600.02,586.98,41.17,0000 0000 0000 0000 000000
2018-08-09 04:11:07,0.01,0.82,0.00,29.39,32.28,34.79,13.63,42.95,1022.50,2006.03,3149.50,2817.99,3202.36,600.14,586.99,41.22,0000 0000 0000 0000 000000
2018-08-09 04:16:08,0.04,0.82,0.00,29.42,32.33,34.85,13.63,42.81,1022.49,2006.00,3148.86,2817.35,3201.67,600.17,586.85,41.27,0000 0000 0000 0000 000000
2018-08-09 04:21:09,0.02,0.83,0.00,29.45,32.38,34.88,13.55,42.72,1022.49,2005.96,3148.06,2816.88,3200.91,599.96,586.74,41.32,0000 0000 0000 0000 000000
2018-08-09 04:26:10,0.02,0.83,0.00,29.47,32.43,34.91,13.52,42.67,1022.49,2005.64,3147.21,2816.08,3200.08,599.72,586.39,41.37,0000 0000 0000 0000 000000
2018-08-09 04:31:12,-0.01,0.83,0.00,29.51,32.48,34.96,13.52,42.73,1022.49,2005.12,3146.53,2815.68,3199.33,600.16,586.69,41.43,0000 0000 0000 0000 000000
2018-08-09 04:36:13,0.03,0.83,0.00,29.53,32.52,35.01,13.59,42.88,1022.48,2005.00,3145.76,2815.02,3198.64,599.87,586.42,41.48,0000 0000 0000 0000 000000
2018-08-09 04:41:14,0.03,0.83,0.00,29.56,32.57,35.04,13.57,42.74,1022.49,2004.99,3144.99,2814.40,3197.93,599.98,586.51,41.53,0000 0000 0000 0000 000000
2018-08-09 04:46:15,0.02,0.83,0.00,29.58,32.61,35.09,13.63,42.79,1022.48,2004.87,3144.19,2813.90,3197.09,600.01,586.56,41.58,0000 0000 0000 0000 000000
2018-08-09 04:51:17,-0.00,0.83,0.00,29.60,32.66,35.12,13.63,42.87,1022.48,2004.42,3143.51,2813.15,3196.34,600.16,586.54,41.63,0000 0000 0000 0000 000000
2018-08-09 04:56:18,0.03,0.83,0.00,29.63,32.70,35.16,13.69,42.88,1022.48,2004.05,3142.66,2812.60,3195.60,600.40,586.68,41.68,0000 0000 0000 0000 000000
2018-08-09 05:01:19,0.02,0.84,0.00,29.65,32.74,35.20,13.64,42.81,1022.48,2004.00,3141.91,2812.00,3194.82,600.14,586.49,41.73,0000 0000 0000 0000 000000
2018-08-09 05:06:21,0.05,0.84,0.00,29.67,32.78,35.24,13.53,42.83,1022.47,2004.00,3141.06,2811.25,3193.97,599.77,586.16,41.78,0000 0000 0000 0000 000000
2018-08-09 05:11:22,0.03,0.84,0.00,29.68,32.81,35.27,13.67,43.00,1022.48,2003.91,3140.32,2810.76,3193.13,600.26,586.52,41.83,0000 0000 0000 0000 000000
2018-08-09 05:16:24,0.01,0.84,0.00,29.70,32.85,35.30,13.57,42.80,1022.48,2003.39,3139.42,2809.88,3192.12,600.10,586.30,41.88,0000 0000 0000 0000 000000
2018-08-09 05:21:25,0.04,0.84,0.00,29.72,32.89,35.33,13.63,42.92,1022.48,2003.08,3138.20,2808.95,3190.90,600.17,586.47,41.93,0000 0000 0000 0000 000000
2018-08-09 05:26:26,0.04,0.84,0.00,29.73,32.92,35.36,13.59,42.91,1022.47,2003.00,3137.41,2808.12,3190.05,600.03,586.16,41.98,0000 0000 0000 0000 000000
2018-08-09 05:31:27,0.04,0.85,0.00,29.75,32.95,35.38,13.60,42.96,1022.48,2003.00,3136.63,2807.69,3189.24,600.13,586.23,42.03,0000 0000 0000 0000 000000
2018-08-09 05:36:29,0.03,0.85,0.00,29.77,32.98,35.42,13.58,42.74,1022.47,2002.98,3135.82,2807.00,3188.41,599.79,585.98,42.08,0000 0000 0000 0000 000000
2018-08-09 05:41:30,0.04,0.85,0.00,29.79,33.01,35.44,13.52,42.62,1022.48,2002.93,3135.03,2806.23,3187.67,599.89,585.97,42.13,0000 0000 0000 0000 000000
2018-08-09 05:46:31,-0.01,0.85,0.00,29.80,33.03,35.46,13.59,42.64,1022.48,2002.58,3134.38,2805.81,3186.87,600.21,586.17,42.18,0000 0000 0000 0000 000000
2018-08-09 05:51:32,0.02,0.85,0.00,29.82,33.06,35.49,13.60,42.69,1022.47,2002.24,3133.56,2805.04,3186.01,600.25,586.24,42.23,0000 0000 0000 0000 000000
2018-08-09 05:56:33,0.04,0.85,0.00,29.82,33.09,35.51,13.64,42.67,1022.48,2002.04,3132.68,2804.40,3185.14,600.14,586.08,42.29,0000 0000 0000 0000 000000
2018-08-09 06:01:35,0.03,0.86,0.00,29.85,33.11,35.54,13.63,42.66,1022.48,2002.00,3131.90,2803.90,3184.30,600.23,586.17,42.34,0000 0000 0000 0000 000000
2018-08-09 06:06:36,0.05,0.86,0.00,29.87,33.14,35.57,13.54,42.62,1022.48,2002.00,3131.01,2803.08,3183.54,599.86,585.52,42.39,0000 0000 0000 0000 000000
2018-08-09 06:11:37,0.05,0.86,0.00,29.88,33.16,35.59,13.58,42.58,1022.46,2001.99,3130.11,2802.42,3182.59,599.75,585.60,42.44,0000 0000 0000 0000 000000
2018-08-09 06:16:39,0.04,0.86,0.00,29.90,33.19,35.60,13.65,42.64,1022.46,2001.98,3129.22,2801.82,3181.75,600.23,586.03,42.49,0000 0000 0000 0000 000000
2018-08-09 06:21:40,0.08,0.87,0.00,29.92,33.21,35.63,13.65,42.80,1022.46,2001.96,3128.15,2800.70,3180.47,600.06,585.81,42.54,0000 0000 0000 0000 000000
2018-08-09 06:26:41,0.01,0.87,0.00,29.95,33.24,35.65,13.63,42.68,1022.41,2001.73,3126.95,2799.99,3179.43,600.01,585.74,42.59,0000 0000 0000 0000 000000
2018-08-09 06:31:42,0.01,0.87,0.00,29.96,33.26,35.67,13.58,42.66,1022.32,2001.25,3126.07,2799.20,3178.59,599.80,585.41,42.64,0000 0000 0000 0000 000000
2018-08-09 06:36:44,0.03,0.87,0.00,29.98,33.28,35.70,13.57,42.64,1022.40,2001.06,3125.24,2798.63,3177.78,599.99,585.70,42.69,0000 0000 0000 0000 000000
2018-08-09 06:41:45,0.03,0.87,0.00,30.00,33.31,35.71,13.53,42.63,1022.45,2001.01,3124.39,2797.99,3176.95,600.03,585.74,42.74,0000 0000 0000 0000 000000
2018-08-09 06:46:46,0.05,0.87,0.00,30.02,33.33,35.72,13.59,42.72,1022.44,2001.00,3123.71,2797.30,3176.11,599.71,585.30,42.79,0000 0000 0000 0000 000000
2018-08-09 06:51:48,0.03,0.88,0.00,30.04,33.35,35.75,13.55,42.66,1022.44,2001.00,3122.83,2796.87,3175.37,599.90,585.39,42.84,0000 0000 0000 0000 000000
2018-08-09 06:56:49,0.05,0.88,0.00,30.06,33.37,35.77,13.58,42.53,1022.45,2000.99,3121.99,2796.08,3174.54,600.03,585.58,42.89,0000 0000 0000 0000 000000
2018-08-09 07:01:50,0.05,0.88,0.00,30.09,33.40,35.78,13.54,42.63,1022.40,2000.99,3121.10,2795.42,3173.69,599.74,585.14,42.94,0000 0000 0000 0000 000000
2018-08-09 07:06:51,0.03,0.88,0.00,30.11,33.42,35.81,13.56,42.58,1022.35,2000.95,3120.24,2794.90,3172.91,599.99,585.44,42.99,0000 0000 0000 0000 000000
2018-08-09 07:11:53,0.03,0.89,0.00,30.13,33.44,35.83,13.56,42.62,1022.24,2000.85,3119.45,2794.10,3172.07,599.92,585.18,43.04,0000 0000 0000 0000 000000
2018-08-09 07:16:54,0.02,0.89,0.00,30.16,33.46,35.85,13.58,42.64,1022.12,2000.61,3118.58,2793.60,3171.24,599.81,584.92,43.09,0000 0000 0000 0000 000000
2018-08-09 07:21:55,0.01,0.89,0.00,30.19,33.48,35.87,13.55,42.43,1022.05,2000.13,3117.56,2792.86,3170.30,599.70,584.81,43.14,0000 0000 0000 0000 000000
2018-08-09 07:26:57,0.04,0.89,0.00,30.21,33.50,35.90,13.59,42.51,1022.05,2000.01,3116.60,2792.05,3169.36,600.34,585.37,43.19,0000 0000 0000 0000 000000
2018-08-09 07:31:58,0.06,0.89,0.00,30.24,33.52,35.92,13.55,42.58,1022.04,2000.00,3115.60,2791.30,3168.33,599.93,584.84,43.25,0000 0000 0000 0000 000000
2018-08-09 07:37:00,0.16,0.90,0.00,30.27,33.55,35.93,13.51,42.31,1022.02,2000.00,3113.16,2788.94,3165.48,600.17,584.94,43.30,0000 0000 0000 0000 000000
2018-08-09 07:42:01,0.05,0.90,0.00,30.31,33.57,35.95,13.56,42.52,1022.03,2000.00,3112.10,2788.04,3164.43,599.90,584.51,43.35,0000 0000 0000 0000 000000
2018-08-09 07:47:02,0.05,0.91,0.00,30.33,33.60,35.98,13.58,42.63,1022.02,1999.99,3111.17,2787.36,3163.61,600.12,584.85,43.40,0000 0000 0000 0000 000000
2018-08-09 07:52:04,0.04,0.91,0.00,30.36,33.61,36.00,13.48,42.32,1022.09,1999.96,3110.22,2786.66,3162.64,599.70,584.41,43.45,0000 0000 0000 0000 000000
2018-08-09 07:57:05,0.02,0.91,0.00,30.39,33.64,36.02,13.49,42.30,1022.14,1999.77,3109.18,2785.95,3161.66,599.81,584.53,43.50,0000 0000 0000 0000 000000
2018-08-09 08:02:06,0.03,0.91,0.00,30.43,33.66,36.04,13.55,42.40,1022.15,1999.56,3108.30,2785.15,3160.82,599.76,584.47,43.55,0000 0000 0000 0000 000000
2018-08-09 08:07:07,0.02,0.91,0.00,30.46,33.68,36.06,13.55,42.43,1022.19,1999.21,3107.31,2784.58,3159.93,599.82,584.40,43.60,0000 0000 0000 0000 000000
2018-08-09 08:12:08,0.03,0.92,0.00,30.50,33.71,36.08,13.53,42.45,1022.09,1999.06,3106.36,2783.91,3158.98,600.10,584.55,43.65,0000 0000 0000 0000 000000
2018-08-09 08:17:10,0.09,0.92,0.00,30.52,33.73,36.12,13.50,42.33,1022.03,1999.00,3105.01,2782.72,3157.70,599.65,584.01,43.70,0000 0000 0000 0000 000000
2018-08-09 08:22:11,0.06,0.92,0.00,30.55,33.75,36.13,13.52,42.24,1022.04,1999.00,3103.76,2781.73,3156.33,600.09,584.35,43.75,0000 0000 0000 0000 000000
2018-08-09 08:27:12,0.04,0.93,0.00,30.57,33.78,36.16,13.52,42.41,1022.07,1999.00,3102.81,2780.99,3155.49,600.06,584.32,43.80,0000 0000 0000 0000 000000
2018-08-09 08:32:14,0.06,0.93,0.00,30.60,33.80,36.19,13.53,42.42,1022.13,1998.99,3101.81,2780.19,3154.51,599.65,583.90,43.85,0000 0000 0000 0000 000000
2018-08-09 08:37:15,0.89,0.95,0.00,30.62,33.82,36.21,13.49,42.42,1022.25,1998.88,3092.93,2770.61,3143.41,599.99,584.28,43.90,0000 0000 0000 0000 000000
2018-08-09 08:42:16,0.07,0.98,0.00,30.64,33.85,36.23,13.49,42.42,1022.29,1998.38,3087.23,2764.57,3136.46,600.23,584.51,43.95,0000 0000 0000 0000 000000
2018-08-09 08:47:17,0.04,0.98,0.00,30.66,33.87,36.26,13.60,42.52,1022.32,1998.11,3086.15,2763.72,3135.42,600.01,584.27,44.00,0000 0000 0000 0000 000000
2018-08-09 08:52:18,0.04,0.98,0.00,30.69,33.90,36.29,13.57,42.61,1022.34,1998.03,3085.01,2762.97,3134.52,600.00,584.22,44.05,0000 0000 0000 0000 000000
2018-08-09 08:57:19,0.06,0.99,0.00,30.71,33.92,36.30,13.56,42.42,1022.41,1998.01,3083.90,2762.11,3133.53,600.00,584.17,44.10,0000 0000 0000 0000 000000
2018-08-09 09:02:21,0.06,0.99,0.00,30.73,33.95,36.32,13.53,42.60,1022.43,1998.00,3082.81,2761.30,3132.50,599.63,583.77,44.15,0000 0000 0000 0000 000000
2018-08-09 09:07:22,0.06,0.99,0.00,30.75,33.97,36.36,13.53,42.60,1022.43,1997.99,3081.67,2760.57,3131.50,599.90,583.98,44.21,0000 0000 0000 0000 000000
2018-08-09 09:12:24,0.04,0.99,0.00,30.77,33.99,36.38,13.53,42.58,1022.42,1997.98,3080.64,2759.91,3130.51,600.07,584.13,44.26,0000 0000 0000 0000 000000
2018-08-09 09:17:25,0.05,1.00,0.00,30.80,34.01,36.40,13.56,42.51,1022.30,1997.89,3079.48,2759.06,3129.49,599.97,584.05,44.31,0000 0000 0000 0000 000000
2018-08-09 09:22:26,0.05,1.00,0.00,30.83,34.04,36.41,13.53,42.48,1022.26,1997.76,3078.48,2758.20,3128.55,600.10,584.03,44.36,0000 0000 0000 0000 000000
2018-08-09 09:27:28,0.02,1.00,0.00,30.86,34.06,36.44,13.54,42.33,1022.25,1997.39,3077.37,2757.57,3127.62,599.80,583.65,44.41,0000 0000 0000 0000 000000
2018-08-09 09:32:29,0.03,1.00,0.00,30.89,34.08,36.46,13.54,42.50,1022.32,1997.10,3076.27,2756.83,3126.55,600.24,584.06,44.46,0000 0000 0000 0000 000000
2018-08-09 09:37:31,0.05,1.00,0.00,30.91,34.10,36.48,13.53,42.48,1022.42,1997.04,3075.27,2755.99,3125.55,600.21,584.04,44.51,0000 0000 0000 0000 000000
2018-08-09 09:42:32,0.06,1.01,0.00,30.95,34.13,36.50,13.48,42.36,1022.33,1997.00,3074.06,2755.13,3124.57,600.00,583.72,44.56,0000 0000 0000 0000 000000
2018-08-09 09:47:33,0.06,1.01,0.00,30.98,34.15,36.53,13.58,42.46,1022.16,1997.00,3072.94,2754.34,3123.45,600.47,583.97,44.61,0000 0000 0000 0000 000000
2018-08-09 09:52:34,0.06,1.01,0.00,31.01,34.18,36.55,13.55,42.28,1022.16,1996.98,3071.77,2753.55,3122.42,600.37,583.87,44.66,0000 0000 0000 0000 000000
2018-08-09 09:57:36,0.04,1.02,0.00,31.04,34.20,36.58,13.55,42.50,1022.23,1996.97,3070.79,2752.85,3121.45,599.77,583.56,44.71,0000 0000 0000 0000 000000
2018-08-09 10:02:37,0.03,1.02,0.00,31.07,34.23,36.60,13.45,42.22,1022.27,1996.74,3069.60,2752.01,3120.37,599.37,582.85,44.76,0000 0000 0000 0000 000000
2018-08-09 10:07:38,0.03,1.02,0.00,31.10,34.25,36.63,13.51,42.38,1022.20,1996.40,3068.49,2751.16,3119.38,599.57,582.94,44.81,0000 0000 0000 0000 000000
2018-08-09 10:12:39,0.03,1.02,0.00,31.12,34.28,36.66,13.49,42.42,1022.20,1996.09,3067.42,2750.52,3118.30,599.57,582.93,44.86,0000 0000 0000 0000 000000
2018-08-09 10:17:40,0.05,1.02,0.00,31.15,34.31,36.69,13.49,42.41,1022.30,1996.01,3066.16,2749.68,3117.19,599.85,583.23,44.91,0000 0000 0000 0000 000000
2018-08-09 10:22:42,0.05,1.03,0.00,31.17,34.33,36.73,13.43,42.29,1022.29,1996.00,3065.04,2748.90,3116.13,600.02,583.30,44.96,0000 0000 0000 0000 000000
2018-08-09 10:27:43,0.06,1.03,0.00,31.20,34.36,36.76,13.49,42.29,1022.35,1996.00,3063.99,2748.07,3115.19,599.97,583.24,45.01,0000 0000 0000 0000 000000
2018-08-09 10:32:44,0.07,1.03,0.00,31.22,34.39,36.79,13.50,42.37,1022.43,1996.00,3062.77,2747.27,3114.10,599.86,583.20,45.06,0000 0000 0000 0000 000000
2018-08-09 10:37:45,0.05,1.04,0.00,31.25,34.41,36.83,13.55,42.50,1022.45,1995.90,3061.61,2746.36,3112.97,600.20,583.35,45.12,0000 0000 0000 0000 000000
2018-08-09 10:42:47,0.02,1.04,0.00,31.27,34.44,36.86,13.44,42.34,1022.45,1995.53,3060.43,2745.54,3111.91,599.73,582.98,45.17,0000 0000 0000 0000 000000
2018-08-09 10:47:48,0.02,1.04,0.00,31.29,34.47,36.90,13.47,42.25,1022.41,1995.13,3059.37,2744.82,3110.96,599.89,583.00,45.22,0000 0000 0000 0000 000000
2018-08-09 10:52:49,0.04,1.04,0.00,31.32,34.50,36.95,13.44,42.23,1022.37,1995.04,3058.36,2744.04,3109.96,599.82,582.80,45.27,0000 0000 0000 0000 000000
2018-08-09 10:57:51,0.06,1.05,0.00,31.36,34.53,36.98,13.59,42.51,1022.41,1995.00,3057.24,2743.20,3108.95,599.93,582.88,45.32,0000 0000 0000 0000 000000
2018-08-09 11:02:52,0.06,1.05,0.00,31.41,34.56,37.03,13.41,42.24,1022.38,1995.00,3056.15,2742.50,3107.99,599.48,582.36,45.37,0000 0000 0000 0000 000000
2018-08-09 11:07:53,0.04,1.05,0.00,31.48,34.58,37.07,13.53,42.37,1022.22,1995.00,3055.23,2741.82,3107.04,599.92,582.63,45.42,0000 0000 0000 0000 000000
2018-08-09 11:12:54,0.04,1.05,0.00,31.55,34.61,37.10,13.52,42.19,1022.20,1994.93,3054.21,2741.04,3106.11,600.08,582.67,45.47,0000 0000 0000 0000 000000
2018-08-09 11:17:56,0.04,1.06,0.00,31.62,34.64,37.13,13.47,42.13,1022.26,1994.79,3053.26,2740.29,3105.17,599.81,582.34,45.52,0000 0000 0000 0000 000000
2018-08-09 11:22:57,0.01,1.06,0.00,31.68,34.67,37.16,13.45,42.26,1022.20,1994.33,3052.29,2739.63,3104.26,600.06,582.31,45.57,0000 0000 0000 0000 000000
2018-08-09 11:27:58,0.03,1.06,0.00,31.74,34.70,37.20,13.48,42.11,1022.12,1994.04,3051.29,2738.88,3103.27,600.14,582.22,45.62,0000 0000 0000 0000 000000
2018-08-09 11:32:59,0.05,1.06,0.00,31.78,34.72,37.22,13.42,42.04,1022.07,1994.00,3050.22,2738.02,3102.34,599.49,581.48,45.67,0000 0000 0000 0000 000000
2018-08-09 11:38:01,0.07,1.06,0.00,31.81,34.75,37.26,13.55,42.17,1022.03,1994.00,3049.12,2737.09,3101.09,600.51,582.30,45.72,0000 0000 0000 0000 000000
2018-08-09 11:43:02,0.06,1.07,0.00,31.82,34.77,37.28,13.48,42.13,1022.03,1993.99,3048.06,2736.15,3100.06,600.34,582.20,45.77,0000 0000 0000 0000 000000
2018-08-09 11:48:04,0.05,1.07,0.00,31.84,34.80,37.29,13.49,42.10,1022.00,1993.94,3047.18,2735.59,3099.13,600.09,581.96,45.82,0000 0000 0000 0000 000000
2018-08-09 11:53:05,0.01,1.07,0.00,31.82,34.82,37.32,13.45,42.00,1022.00,1993.74,3046.30,2734.99,3098.37,599.95,581.81,45.87,0000 0000 0000 0000 000000
2018-08-09 11:58:06,0.03,1.07,0.00,31.80,34.84,37.33,13.45,42.08,1022.00,1993.46,3045.53,2734.28,3097.73,599.94,581.89,45.92,0000 0000 0000 0000 000000
2018-08-09 12:03:07,0.00,1.07,0.00,31.76,34.85,37.33,13.52,42.04,1021.99,1993.30,3044.97,2733.99,3097.04,600.11,582.03,45.97,0000 0000 0000 0000 000000
2018-08-09 12:08:08,0.04,1.07,0.00,31.69,34.86,37.33,13.39,41.93,1021.99,1993.26,3044.24,2733.60,3096.58,599.60,581.74,46.02,0000 0000 0000 0000 000000
2018-08-09 12:13:10,0.02,1.08,0.00,31.59,34.87,37.33,13.44,42.01,1021.99,1993.10,3043.54,2733.01,3095.94,600.16,582.38,46.07,0000 0000 0000 0000 000000
2018-08-09 12:18:11,0.02,1.08,0.00,31.49,34.88,37.34,13.49,42.05,1021.99,1993.04,3042.99,2732.79,3095.21,600.07,582.56,46.13,0000 0000 0000 0000 000000
2018-08-09 12:23:12,0.03,1.08,0.00,31.39,34.89,37.34,13.50,42.33,1021.99,1993.02,3042.25,2732.08,3094.87,599.80,582.50,46.18,0000 0000 0000 0000 000000
2018-08-09 12:28:14,0.01,1.08,0.00,31.32,34.90,37.34,13.49,42.20,1021.98,1993.02,3041.89,2732.00,3094.12,599.98,582.69,46.23,0000 0000 0000 0000 000000
2018-08-09 12:33:15,0.04,1.08,0.00,31.26,34.90,37.34,13.52,42.16,1021.96,1993.00,3041.11,2731.38,3093.83,599.86,582.78,46.28,0000 0000 0000 0000 000000
2018-08-09 12:38:16,0.02,1.08,0.00,31.21,34.89,37.34,13.54,42.10,1021.95,1993.00,3040.72,2731.00,3093.12,600.38,583.29,46.33,0000 0000 0000 0000 000000
2018-08-09 12:43:18,0.01,1.08,0.00,31.16,34.88,37.33,13.46,42.26,1021.62,1993.00,3040.05,2730.93,3092.90,599.61,582.63,46.38,0000 0000 0000 0000 000000
2018-08-09 12:48:19,0.05,1.09,0.00,31.11,34.87,37.33,13.48,42.08,1021.52,1993.00,3039.53,2730.18,3092.12,599.61,582.52,46.43,0000 0000 0000 0000 000000
2018-08-09 12:53:20,0.01,1.09,0.00,31.06,34.87,37.32,13.53,42.23,1021.52,1993.00,3038.92,2729.99,3091.76,600.12,583.20,46.48,0000 0000 0000 0000 000000